Hourly Weather Roundup
Issued by NWS Central Illinois

Current Version | Previous Version | Text Only | Print | Product List | Glossary On
Versions: 1 2 3 4 5 6 7 8 9 10 11 12 13 14 15 16 17 18 19 20 21 22 23 24 25 26 27 28 29 30 31 32 33 34 35 36 37 38 39 40 41 42 43 44 45 46 47 48 49 50
000
NZUS43 KILX 280710
HWRILX

AREA WEATHER ROUNDUP
NATIONAL WEATHER SERVICE, LINCOLN IL
100 AM CST SUN DEC 28 2014


CITY           SKY/WX    TMP DP  RH WIND       PRES   REMARKS
BLOOMINGTON    CLOUDY    29  26  88 W16       30.17R WCI  17
CHAMPAIGN      MOCLDY    30  26  85 NW12      30.15S WCI  20
DECATUR        CLOUDY    31  25  78 W14       30.17S WCI  21
FLORA          PTCLDY    35  32  89 NW12      30.17S WCI  26
GALESBURG      CLOUDY    24  21  88 W7        30.19R WCI  16
JACKSONVILLE   CLOUDY    32  27  80 W9        30.20F WCI  24
LACON          PTCLDY    26  20  79 W5        30.18R WCI  20
LAWRENCEVILLE  CLOUDY    35  32  88 NW14      30.15S WCI  26
LITCHFIELD     CLOUDY    31  25  78 N13       30.18F WCI  21
$$


CITY           SKY/WX    TMP DP  RH WIND       PRES   REMARKS
LINCOLN        CLOUDY    31  26  80 NW7       30.20S WCI  24
MACOMB         CLOUDY    28  23  81 NW12      30.23R WCI  18
MATTOON        CLOUDY    32  28  85 NW12      30.15S WCI  23
MT CARMEL AP   CLOUDY    37  32  81 N13       30.15R WCI  29
OLNEY-NOBLE AP CLOUDY    34  30  86 N9        30.17S WCI  26
PARIS          CLOUDY    32  30  93 NW6       30.15S WCI  26
PEORIA         CLOUDY    29  20  69 NW10      30.20R WCI  20
PONTIAC        CLOUDY    31  27  87 W13       30.16R WCI  21
RANTOUL        MOCLDY    31  28  87 NW12      30.14F WCI  22
ROBINSON       CLOUDY    34  31  89 NW13      30.16S WCI  25
SPRINGFIELD    CLOUDY    31  24  75 W13       30.20R WCI  21
TAYLORVILLE    CLOUDY    32  27  80 NW9       30.19F WCI  24
$$

...REGIONAL REPORTS...


CITY           SKY/WX    TMP DP  RH WIND       PRES   REMARKS
CHICAGO O`HARE CLOUDY    30  23  75 NW13      30.09S WCI  20
KANKAKEE       CLOUDY    31  27  88 W15       30.14R WCI  20
MOLINE         CLEAR     23  15  71 W8        30.19S WCI  14
MOUNT VERNON   CLOUDY    36  28  75 N5        30.17F WCI  32
PITTSFIELD     CLOUDY    31  25  77 NW10      30.22F WCI  22
QUINCY         CLOUDY    29  22  75 NW12      30.21S WCI  19
ROCKFORD       CLOUDY    27  19  72 NW14      30.14S WCI  16
$$


CITY           SKY/WX    TMP DP  RH WIND       PRES   REMARKS
BURLINGTON     CLOUDY    28  23  81 W7        30.20S WCI  21
CEDAR RAPIDS   CLEAR     15  14  95 CALM      30.17F
DES MOINES     CLEAR     18  13  80 CALM      30.20S
KIRKSVILLE     CLOUDY    26  21  81 W5        30.23F WCI  20
OTTUMWA        CLEAR     22  18  85 W7        30.20S WCI  13
ST LOUIS       CLOUDY    34  26  72 NW7       30.20F WCI  28
$$


CITY           SKY/WX    TMP DP  RH WIND       PRES   REMARKS
TERRE HAUTE    CLOUDY    33  28  81 NW9       30.14R WCI  25
EVANSVILLE     CLOUDY    39  35  86 N8        30.14S WCI  33
INDIANAPOLIS   LGT RAIN  32  30  92 NW12      30.09S WCI  23
LAFAYETTE      CLOUDY    31  27  85 NW10      30.11S WCI  22
MADISON        CLEAR     23  17  78 W7        30.10F WCI  15
MILWAUKEE      PTCLDY    29  19  66 W12       30.07S WCI  19
$$




USA.gov is the U.S. government's official web portal to all federal, state and local government web resources and services.